When you browse on this site, cookies collect data to enhance your experience and personalize the content and advertising you see.
Visit our Privacy Policy to learn more. By continuing to use the site, you agree to this use of cookies and data.
  • In Hungary
  • List of Countries
  • For 7 days
  • Water Temperature
  • Weather Map
  • News
  • Weather Widgets
  • user-avatar
    Login

    Hourly Weather Nabq

    Today, 31 May, Sunday

    Time Temperature Precipitation Wind Pressure Humidity
    00:00 +27°C° 0 mm 8 mps 758 mmHg 33%
    01:00 +26°C° 0 mm 8 mps 758 mmHg 35%
    02:00 +24°C° 0 mm 8 mps 757 mmHg 35%
    03:00 +24°C° 0 mm 8 mps 758 mmHg 37%
    04:00 +23°C° 0 mm 8 mps 758 mmHg 38%
    05:00 +23°C° 0 mm 8 mps 758 mmHg 40%
    06:00 +26°C° 0 mm 8 mps 758 mmHg 35%
    07:00 +28°C° 0 mm 7 mps 758 mmHg 31%
    08:00 +30°C° 0 mm 7 mps 758 mmHg 27%
    09:00 +33°C° 0 mm 7 mps 757 mmHg 26%
    10:00 +34°C° 0 mm 8 mps 757 mmHg 24%
    11:00 +37°C° 0 mm 8 mps 757 mmHg 23%
    12:00 +36°C° 0 mm 7 mps 756 mmHg 22%
    13:00 +38°C° 0 mm 7 mps 756 mmHg 21%
    14:00 +38°C° 0 mm 6 mps 755 mmHg 21%
    15:00 +38°C° 0 mm 6 mps 755 mmHg 21%
    16:00 +37°C° 0 mm 5 mps 755 mmHg 22%
    17:00 +37°C° 0 mm 5 mps 755 mmHg 22%
    18:00 +35°C° 0 mm 5 mps 755 mmHg 24%
    19:00 +33°C° 0 mm 6 mps 756 mmHg 26%
    20:00 +32°C° 0 mm 7 mps 756 mmHg 28%
    21:00 +30°C° 0 mm 7 mps 756 mmHg 29%
    22:00 +29°C° 0 mm 8 mps 757 mmHg 30%
    23:00 +29°C° 0 mm 8 mps 757 mmHg 30%

    Tomorrow, 1 June, Monday

    Time Temperature Precipitation Wind Pressure Humidity
    00:00 +28°C° 0 mm 8 mps 757 mmHg 31%
    01:00 +27°C° 0 mm 8 mps 756 mmHg 32%
    02:00 +27°C° 0 mm 9 mps 756 mmHg 34%
    03:00 +26°C° 0 mm 8 mps 756 mmHg 33%
    04:00 +26°C° 0 mm 8 mps 756 mmHg 32%
    05:00 +24°C° 0 mm 7 mps 757 mmHg 31%
    06:00 +27°C° 0 mm 8 mps 757 mmHg 26%
    07:00 +31°C° 0 mm 8 mps 756 mmHg 20%
    08:00 +33°C° 0 mm 8 mps 756 mmHg 15%
    09:00 +34°C° 0 mm 8 mps 756 mmHg 16%
    10:00 +35°C° 0 mm 8 mps 756 mmHg 16%
    11:00 +37°C° 0 mm 8 mps 756 mmHg 16%
    12:00 +38°C° 0 mm 8 mps 756 mmHg 17%
    13:00 +39°C° 0 mm 7 mps 755 mmHg 17%
    14:00 +39°C° 0 mm 7 mps 754 mmHg 18%
    15:00 +39°C° 0 mm 7 mps 754 mmHg 18%
    16:00 +39°C° 0 mm 6 mps 754 mmHg 18%
    17:00 +39°C° 0 mm 6 mps 754 mmHg 19%
    18:00 +36°C° 0 mm 7 mps 754 mmHg 20%
    19:00 +34°C° 0 mm 7 mps 755 mmHg 22%
    20:00 +33°C° 0 mm 7 mps 755 mmHg 24%
    21:00 +32°C° 0 mm 6 mps 755 mmHg 24%
    22:00 +32°C° 0 mm 6 mps 755 mmHg 23%
    23:00 +30°C° 0 mm 5 mps 755 mmHg 23%

    Day after tomorrow, 2 June, Tuesday

    Time Temperature Precipitation Wind Pressure Humidity
    00:00 +30°C° 0 mm 5 mps 755 mmHg 22%
    01:00 +30°C° 0 mm 5 mps 755 mmHg 21%
    02:00 +29°C° 0 mm 5 mps 754 mmHg 20%
    03:00 +29°C° 0 mm 4 mps 754 mmHg 21%
    04:00 +29°C° 0 mm 4 mps 754 mmHg 21%
    05:00 +28°C° 0 mm 3 mps 754 mmHg 22%
    06:00 +31°C° 0 mm 3 mps 754 mmHg 20%
    07:00 +34°C° 0 mm 3 mps 754 mmHg 18%
    08:00 +36°C° 0 mm 3 mps 755 mmHg 16%
    09:00 +38°C° 0 mm 2 mps 755 mmHg 15%
    10:00 +39°C° 0 mm 2 mps 755 mmHg 14%
    11:00 +40°C° 0 mm 2 mps 754 mmHg 13%
    12:00 +42°C° 0 mm 3 mps 754 mmHg 13%
    13:00 +42°C° 0 mm 3 mps 753 mmHg 12%
    14:00 +43°C° 0 mm 4 mps 753 mmHg 12%
    15:00 +42°C° 0 mm 4 mps 752 mmHg 13%
    16:00 +40°C° 0 mm 3 mps 752 mmHg 14%
    17:00 +39°C° 0 mm 2 mps 752 mmHg 15%
    18:00 +37°C° 0 mm 2 mps 753 mmHg 18%
    19:00 +36°C° 0 mm 2 mps 753 mmHg 20%
    20:00 +34°C° 0 mm 2 mps 754 mmHg 23%
    21:00 +33°C° 0 mm 4 mps 754 mmHg 26%
    22:00 +32°C° 0 mm 5 mps 754 mmHg 29%
    23:00 +30°C° 0 mm 7 mps 755 mmHg 32%

    3 June, Wednesday

    Time Temperature Precipitation Wind Pressure Humidity
    00:00 +29°C° 0 mm 7 mps 755 mmHg 35%
    01:00 +28°C° 0 mm 8 mps 755 mmHg 39%
    02:00 +27°C° 0 mm 8 mps 755 mmHg 42%
    03:00 +27°C° 0 mm 8 mps 755 mmHg 44%
    04:00 +26°C° 0 mm 8 mps 755 mmHg 46%
    05:00 +24°C° 0 mm 7 mps 755 mmHg 47%
    06:00 +27°C° 0 mm 7 mps 755 mmHg 41%
    07:00 +29°C° 0 mm 7 mps 756 mmHg 36%
    08:00 +32°C° 0 mm 8 mps 756 mmHg 30%
    09:00 +34°C° 0 mm 7 mps 756 mmHg 27%
    10:00 +35°C° 0 mm 7 mps 756 mmHg 25%
    11:00 +36°C° 0 mm 7 mps 756 mmHg 23%
    12:00 +38°C° 0 mm 6 mps 755 mmHg 20%
    13:00 +39°C° 0 mm 6 mps 754 mmHg 17%
    14:00 +40°C° 0 mm 5 mps 754 mmHg 14%
    15:00 +40°C° 0 mm 5 mps 754 mmHg 14%
    16:00 +39°C° 0 mm 5 mps 754 mmHg 14%
    17:00 +39°C° 0 mm 5 mps 754 mmHg 14%
    18:00 +36°C° 0 mm 5 mps 754 mmHg 15%
    19:00 +34°C° 0 mm 5 mps 755 mmHg 16%
    20:00 +33°C° 0 mm 5 mps 755 mmHg 17%
    21:00 +32°C° 0 mm 5 mps 756 mmHg 18%
    22:00 +30°C° 0 mm 5 mps 756 mmHg 19%
    23:00 +30°C° 0 mm 5 mps 756 mmHg 20%

    4 June, Thursday

    Time Temperature Precipitation Wind Pressure Humidity
    00:00 +29°C° 0 mm 5 mps 756 mmHg 22%
    01:00 +28°C° 0 mm 6 mps 756 mmHg 24%
    02:00 +27°C° 0 mm 6 mps 756 mmHg 26%
    03:00 +27°C° 0 mm 6 mps 756 mmHg 26%
    04:00 +26°C° 0 mm 6 mps 756 mmHg 27%
    05:00 +26°C° 0 mm 6 mps 756 mmHg 27%
    06:00 +28°C° 0 mm 6 mps 756 mmHg 24%
    07:00 +32°C° 0 mm 7 mps 756 mmHg 21%
    08:00 +35°C° 0 mm 7 mps 756 mmHg 18%
    09:00 +36°C° 0 mm 7 mps 756 mmHg 17%
    10:00 +38°C° 0 mm 7 mps 756 mmHg 16%
    11:00 +39°C° 0 mm 7 mps 756 mmHg 15%
    12:00 +40°C° 0 mm 6 mps 755 mmHg 15%
    13:00 +41°C° 0 mm 5 mps 755 mmHg 14%
    14:00 +41°C° 0 mm 4 mps 754 mmHg 14%
    15:00 +41°C° 0 mm 4 mps 754 mmHg 13%
    16:00 +41°C° 0 mm 4 mps 754 mmHg 13%
    17:00 +40°C° 0 mm 5 mps 754 mmHg 13%
    18:00 +37°C° 0 mm 5 mps 754 mmHg 15%
    19:00 +35°C° 0 mm 5 mps 755 mmHg 16%
    20:00 +33°C° 0 mm 5 mps 755 mmHg 18%
    21:00 +33°C° 0 mm 6 mps 755 mmHg 20%
    22:00 +32°C° 0 mm 7 mps 756 mmHg 21%
    23:00 +32°C° 0 mm 7 mps 756 mmHg 22%

    5 June, Friday

    Time Temperature Precipitation Wind Pressure Humidity
    00:00 +30°C° 0 mm 7 mps 756 mmHg 25%
    01:00 +29°C° 0 mm 7 mps 756 mmHg 28%
    02:00 +28°C° 0 mm 7 mps 756 mmHg 31%
    03:00 +27°C° 0 mm 7 mps 756 mmHg 32%
    04:00 +27°C° 0 mm 6 mps 756 mmHg 33%
    05:00 +27°C° 0 mm 6 mps 756 mmHg 35%
    06:00 +29°C° 0 mm 6 mps 757 mmHg 30%
    07:00 +32°C° 0 mm 6 mps 757 mmHg 26%
    08:00 +35°C° 0 mm 6 mps 757 mmHg 22%
    09:00 +36°C° 0 mm 6 mps 757 mmHg 21%
    10:00 +38°C° 0 mm 6 mps 757 mmHg 20%
    11:00 +39°C° 0 mm 6 mps 756 mmHg 19%
    12:00 +40°C° 0 mm 5 mps 756 mmHg 18%
    13:00 +40°C° 0 mm 4 mps 755 mmHg 17%
    14:00 +40°C° 0 mm 3 mps 755 mmHg 17%
    15:00 +40°C° 0 mm 3 mps 755 mmHg 17%
    16:00 +39°C° 0 mm 3 mps 755 mmHg 17%
    17:00 +39°C° 0 mm 3 mps 754 mmHg 16%
    18:00 +37°C° 0 mm 4 mps 755 mmHg 19%
    19:00 +35°C° 0 mm 5 mps 756 mmHg 21%
    20:00 +34°C° 0 mm 7 mps 756 mmHg 23%
    21:00 +33°C° 0 mm 7 mps 756 mmHg 25%
    22:00 +32°C° 0 mm 7 mps 757 mmHg 28%
    23:00 +30°C° 0 mm 7 mps 757 mmHg 31%
    Show more